Berthoud Pass, CO

6:48 PM MDT on October 18, 2019 (GMT -0600)
Berthoud Pass

Weather History for K0CO - September, 2019

Change the Weather History Date:

Tuesday, September 17, 2019

  Actual Average (KBJC) Record (KBJC)
Temperature  
Mean Temperature 40 °F -  
Max Temperature 46 °F 72 °F 93 °F (2000)
Min Temperature 35 °F 49 °F 39 °F (2003)
Degree Days  
Heating Degree Days 24    
Moisture  
Dew Point 26 °F    
Average Humidity 57    
Maximum Humidity 61    
Minimum Humidity 53    
Precipitation  
Precipitation 0.00 in - - ()
Sea Level Pressure  
Sea Level Pressure 30.45 in    
Wind  
Wind Speed 19 mph (West)    
Max Wind Speed 34 mph    
Max Gust Speed 45 mph    
Visibility 10 miles    
Events Thunderstorm    
Averages and records for this station are not official NWS values.
T = Trace of Precipitation, MM = Missing Value Source: NWS Daily Summary

Daily Weather History Graph

Daily Weather History Graph

Search for Another Location

Airport or City:

Astronomy

Sep. 17, 2019 Rise Set
Actual Time 6:45 AM MDT 7:08 PM MDT
Civil Twilight 6:18 AM MDT 7:35 PM MDT
Nautical Twilight 5:46 AM MDT 8:07 PM MDT
Astronomical Twilight 5:14 AM MDT 8:39 PM MDT
Moon 9:13 PM MDT (9/17) 9:52 AM MDT (9/17)
Length of Visible Light 13h 16m
Length of Day
12h 22m
Waning Gibbous, 89% of the Moon is Illuminated
Sep 17
Waning Gibbous
Sep 21
Last Quarter
Sep 28
New
Oct 5
First Quarter
Oct 13
Full

Hourly Weather History & Observations

Time (MDT) Temp. Windchill Dew Point Humidity Pressure Visibility Wind Dir Wind Speed Gust Speed Precip Events Conditions
12:12 AM 39.2 °F 32.5 °F 24.8 °F 56% 30.48 in 10.0 mi WSW 10.4 mph - N/A   Clear
12:36 AM 41.0 °F 33.5 °F 26.6 °F 57% 30.46 in 10.0 mi WSW 13.8 mph 19.6 mph N/A   Clear
12:54 AM 41.0 °F 35.2 °F 26.6 °F 57% 30.47 in 10.0 mi WSW 9.2 mph 20.7 mph N/A   Clear
1:12 AM 41.0 °F 34.7 °F 26.6 °F 57% 30.47 in 10.0 mi West 10.4 mph 17.3 mph N/A   Clear
1:36 AM 39.2 °F 33.0 °F 26.6 °F 61% 30.47 in 10.0 mi WSW 9.2 mph 19.6 mph N/A   Clear
1:54 AM 39.2 °F 33.0 °F 26.6 °F 61% 30.47 in 10.0 mi West 9.2 mph 27.6 mph N/A   Clear
2:12 AM 39.2 °F 34.2 °F 24.8 °F 56% 30.47 in 10.0 mi West 6.9 mph - N/A   Clear
2:36 AM 37.4 °F 30.3 °F 23.0 °F 56% 30.47 in 10.0 mi West 10.4 mph 21.9 mph N/A   Clear
2:54 AM 37.4 °F 26.9 °F 23.0 °F 56% 30.46 in 10.0 mi WNW 20.7 mph 27.6 mph N/A   Clear
3:12 AM 37.4 °F 27.5 °F 23.0 °F 56% 30.46 in 10.0 mi WNW 18.4 mph 27.6 mph N/A   Clear
3:54 AM 37.4 °F 25.2 °F 23.0 °F 56% 30.44 in 10.0 mi WNW 28.8 mph - N/A   Clear
4:12 AM 37.4 °F 26.9 °F 23.0 °F 56% 30.44 in 10.0 mi WNW 20.7 mph 32.2 mph N/A   Clear
5:12 AM 35.6 °F 24.0 °F 21.2 °F 56% 30.43 in 10.0 mi NW 23.0 mph 32.2 mph N/A   Clear
5:35 AM 35.6 °F 24.0 °F 23.0 °F 60% 30.43 in 10.0 mi WNW 23.0 mph 32.2 mph N/A   Clear
5:53 AM 37.4 °F 25.6 °F 23.0 °F 56% 30.43 in 10.0 mi WNW 26.5 mph 34.5 mph N/A   Clear
6:12 AM 37.4 °F 25.6 °F 23.0 °F 56% 30.43 in 10.0 mi West 26.5 mph 32.2 mph N/A   Clear
6:37 AM 37.4 °F 25.2 °F 23.0 °F 56% 30.42 in 10.0 mi WNW 28.8 mph 33.4 mph N/A   Clear
6:55 AM 37.4 °F 24.6 °F 23.0 °F 56% 30.42 in 10.0 mi WNW 32.2 mph 39.1 mph N/A   Clear
7:12 AM 35.6 °F 22.1 °F 23.0 °F 60% 30.42 in 10.0 mi WNW 32.2 mph - N/A   Clear
7:35 AM 37.4 °F 24.6 °F 23.0 °F 56% 30.42 in 10.0 mi WNW 32.2 mph 38.0 mph N/A   Clear
7:53 AM 35.6 °F 22.5 °F 23.0 °F 60% 30.43 in 10.0 mi WNW 29.9 mph 35.7 mph N/A   Clear
8:12 AM 37.4 °F 24.2 °F 23.0 °F 56% 30.42 in 10.0 mi WNW 34.5 mph 40.3 mph N/A   Clear
8:36 AM 37.4 °F 24.8 °F 23.0 °F 56% 30.42 in 10.0 mi WNW 31.1 mph 40.3 mph N/A   Scattered Clouds
8:54 AM 37.4 °F 25.2 °F 23.0 °F 56% 30.43 in 10.0 mi WNW 28.8 mph 35.7 mph N/A   Clear
9:12 AM 37.4 °F 25.0 °F 23.0 °F 56% 30.44 in 10.0 mi WNW 29.9 mph - N/A Thunderstorm Thunderstorm
9:36 AM 37.4 °F 24.8 °F 23.0 °F 56% 30.44 in 10.0 mi WNW 31.1 mph 40.3 mph N/A   Clear
9:54 AM 37.4 °F 25.9 °F 23.0 °F 56% 30.44 in 10.0 mi WNW 25.3 mph - N/A   Clear
10:12 AM 37.4 °F 27.2 °F 23.0 °F 56% 30.45 in 10.0 mi NW 19.6 mph 32.2 mph N/A   Clear
10:36 AM 37.4 °F 26.6 °F 24.8 °F 60% 30.45 in 10.0 mi WNW 21.9 mph 32.2 mph N/A   Clear
10:54 AM 41.0 °F 32.5 °F 26.6 °F 57% 30.45 in 10.0 mi West 17.3 mph 31.1 mph N/A   Mostly Cloudy
11:36 AM 42.8 °F 33.5 °F 28.4 °F 57% 30.45 in 10.0 mi West 23.0 mph 42.6 mph N/A   Clear
11:54 AM 44.6 °F 38.8 °F 30.2 °F 57% 30.45 in 10.0 mi West 11.5 mph 41.4 mph N/A   Scattered Clouds
12:12 PM 44.6 °F 36.6 °F 30.2 °F 57% 30.45 in 10.0 mi West 19.6 mph 38.0 mph N/A   Mostly Cloudy
12:36 PM 44.6 °F 35.9 °F 30.2 °F 57% 30.44 in 10.0 mi West 23.0 mph 27.6 mph N/A   Overcast
12:54 PM 44.6 °F 35.9 °F 30.2 °F 57% 30.43 in 10.0 mi West 23.0 mph 29.9 mph N/A   Overcast
1:11 PM 44.6 °F 36.1 °F 30.2 °F 57% 30.44 in 10.0 mi West 21.9 mph 32.2 mph N/A   Overcast
1:35 PM 46.4 °F 38.3 °F 32.0 °F 57% 30.43 in 10.0 mi West 23.0 mph 42.6 mph N/A   Mostly Cloudy
1:53 PM 46.4 °F 41.1 °F 32.0 °F 57% 30.44 in 10.0 mi SW 11.5 mph 28.8 mph N/A   Mostly Cloudy
2:12 PM 44.6 °F 35.7 °F 30.2 °F 57% 30.44 in 10.0 mi West 24.2 mph 33.4 mph N/A   Overcast
2:35 PM 44.6 °F 38.8 °F 30.2 °F 57% 30.44 in 10.0 mi WSW 11.5 mph 32.2 mph N/A   Overcast
2:53 PM 46.4 °F 38.5 °F 30.2 °F 53% 30.44 in 10.0 mi West 21.9 mph 34.5 mph N/A   Overcast
3:12 PM 44.6 °F 35.9 °F 30.2 °F 57% 30.43 in 10.0 mi West 23.0 mph 39.1 mph N/A   Overcast
3:36 PM 44.6 °F 38.4 °F 30.2 °F 57% 30.44 in 10.0 mi SW 12.7 mph 35.7 mph N/A   Mostly Cloudy
3:54 PM 44.6 °F 35.7 °F 30.2 °F 57% 30.44 in 10.0 mi West 24.2 mph 32.2 mph N/A   Mostly Cloudy
4:12 PM 46.4 °F 37.5 °F 32.0 °F 57% 30.43 in 10.0 mi West 27.6 mph 41.4 mph N/A   Mostly Cloudy
4:36 PM 46.4 °F 38.5 °F 32.0 °F 57% 30.44 in 10.0 mi West 21.9 mph 27.6 mph N/A   Mostly Cloudy
4:54 PM 44.6 °F 36.1 °F 32.0 °F 61% 30.44 in 10.0 mi WSW 21.9 mph 33.4 mph N/A   Overcast
5:12 PM 44.6 °F - 30.2 °F 57% 30.43 in 10.0 mi North - - N/A   Overcast
5:36 PM 42.8 °F 33.5 °F 28.4 °F 57% 30.44 in 10.0 mi WNW 23.0 mph 32.2 mph N/A   Scattered Clouds
5:54 PM 42.8 °F 34.3 °F 28.4 °F 57% 30.44 in 10.0 mi WNW 19.6 mph - N/A   Scattered Clouds
5:59 PM 42.8 °F 34.5 °F 28.4 °F 57% 30.44 in 10.0 mi WNW 18.4 mph - N/A   Clear
6:32 PM 42.8 °F 34.3 °F 28.4 °F 57% 30.44 in 10.0 mi WNW 19.6 mph 24.2 mph N/A   Mostly Cloudy
6:56 PM 42.8 °F 34.5 °F 28.4 °F 57% 30.45 in 10.0 mi WNW 18.4 mph - N/A   Mostly Cloudy
7:16 PM 41.0 °F 32.5 °F 26.6 °F 57% 30.46 in 10.0 mi West 17.3 mph 26.5 mph N/A   Mostly Cloudy
7:34 PM 41.0 °F 33.1 °F 26.6 °F 57% 30.46 in 10.0 mi WNW 15.0 mph 28.8 mph N/A   Mostly Cloudy
7:52 PM 41.0 °F - 26.6 °F 57% 30.45 in 10.0 mi North - - N/A   Scattered Clouds
8:11 PM 41.0 °F - 26.6 °F 57% 30.46 in 10.0 mi North - - N/A   Scattered Clouds
8:35 PM 39.2 °F 28.3 °F 24.8 °F 56% 30.47 in 10.0 mi West 25.3 mph 44.9 mph N/A   Overcast
8:53 PM 37.4 °F 25.4 °F 23.0 °F 56% 30.47 in 10.0 mi WNW 27.6 mph 38.0 mph N/A   Overcast
9:12 PM 37.4 °F 25.4 °F 23.0 °F 56% 30.47 in 10.0 mi WNW 27.6 mph 35.7 mph N/A   Scattered Clouds
9:36 PM 37.4 °F 26.9 °F 23.0 °F 56% 30.48 in 10.0 mi WNW 20.7 mph 33.4 mph N/A   Clear
10:12 PM 37.4 °F 27.5 °F 23.0 °F 56% 30.48 in 10.0 mi WNW 18.4 mph 28.8 mph N/A   Mostly Cloudy
10:36 PM 37.4 °F 27.5 °F 23.0 °F 56% 30.48 in 10.0 mi West 18.4 mph 26.5 mph N/A   Mostly Cloudy
10:54 PM 37.4 °F 26.9 °F 23.0 °F 56% 30.48 in 10.0 mi WNW 20.7 mph 29.9 mph N/A   Scattered Clouds
11:12 PM 37.4 °F 28.9 °F 23.0 °F 56% 30.49 in 10.0 mi West 13.8 mph 21.9 mph N/A   Mostly Cloudy
11:36 PM 37.4 °F 28.9 °F 23.0 °F 56% 30.49 in 10.0 mi West 13.8 mph 31.1 mph N/A   Scattered Clouds
11:54 PM 37.4 °F 26.4 °F 23.0 °F 56% 30.49 in 10.0 mi WNW 23.0 mph 28.8 mph N/A   Scattered Clouds